Wind_Speed
73 75 75 74 74 74 74 73 74 74 75 75 76 76 76 76 76 75 75 76 77 77 78 78 78 78 77 77 78 78 78 78 78 78 78 77 76 75 73 73 73 73 73 74 74 75 74 72 73 76 74 72 71 69 68 67 66 63 61 59 55 54 53 50 46 43 40 38 36 35 35 34 32 30 29 27 25 23 22 21 20 21 22 23 25
75 75 75 75 75 75 75 75 75 75 75 76 76 77 77 77 77 77 78 79 79 79 80 80 79 78 79 79 79 79 79 78 78 77 77 76 75 73 73 74 74 73 73 73 74 74 73 73 75 75 72 70 69 68 68 67 64 62 60 57 54 53 51 47 43 40 38 37 35 34 35 33 31 30 29 27 25 24 23 22 21 21 23 24 26
76 77 77 78 79 79 78 77 77 77 77 77 77 78 77 78 78 79 80 79 79 80 80 80 79 79 80 80 80 79 78 77 76 76 76 76 75 74 74 76 75 74 74 73 73 73 73 75 76 73 69 68 69 69 68 65 63 61 58 55 53 52 48 44 41 39 37 37 35 34 34 33 31 29 28 27 26 24 23 23 22 22 24 25 26
77 78 79 80 80 80 80 79 78 77 77 77 78 78 78 78 79 80 80 79 79 79 79 79 79 80 80 80 80 79 78 77 76 76 76 77 76 76 77 76 76 75 74 74 73 72 74 76 75 71 68 69 71 70 67 64 62 60 56 53 52 50 46 42 40 38 37 37 35 33 33 31 31 29 28 27 26 25 24 24 23 24 25 26 27
76 79 80 80 80 80 79 77 75 75 76 76 76 76 77 78 79 79 77 77 78 78 79 79 80 81 81 81 80 79 79 78 77 77 77 77 77 78 77 76 76 76 75 75 73 73 75 76 74 70 69 72 72 69 66 63 61 57 54 52 50 47 43 41 39 38 38 37 35 32 32 30 30 29 27 27 26 26 24 24 24 25 26 27 28
76 81 81 80 80 81 79 76 76 76 77 75 74 74 76 78 79 77 77 79 80 80 80 80 81 82 82 81 80 80 80 79 78 78 78 78 78 78 78 77 77 77 76 75 73 73 75 75 73 70 71 73 72 68 64 61 58 54 52 51 48 44 41 40 39 38 38 37 34 31 30 29 29 28 27 26 27 26 25 25 25 25 27 28 29
80 82 81 82 82 82 81 80 79 79 77 74 75 77 79 80 78 77 80 82 82 83 81 81 83 84 82 81 81 81 81 80 80 79 79 79 79 79 78 79 78 77 76 74 72 73 75 74 72 71 73 73 70 65 62 59 55 52 51 49 46 42 40 40 39 39 39 38 34 31 30 29 28 27 26 26 27 27 26 26 25 26 27 28 29
83 84 85 84 83 84 84 83 81 79 78 78 80 81 80 80 80 81 84 84 83 83 82 83 84 83 83 82 82 82 82 81 81 80 80 79 79 79 79 78 77 75 74 73 73 74 74 73 73 73 73 70 66 62 59 56 53 51 49 47 43 41 40 40 40 39 39 37 33 30 29 28 28 26 26 26 27 27 27 27 26 27 28 29 30
84 86 86 85 85 85 83 82 81 81 82 82 82 82 81 81 82 84 83 82 83 83 83 83 83 83 83 83 83 83 82 82 82 82 81 80 79 79 78 77 76 74 73 73 75 75 74 73 74 73 70 65 61 58 56 53 50 48 47 45 42 40 39 39 39 39 37 36 33 30 29 28 27 26 25 26 28 29 29 28 27 28 29 29 30
85 86 87 87 86 82 80 82 84 84 85 84 84 83 82 83 85 85 84 84 85 84 81 80 80 82 82 82 83 83 83 84 83 83 82 80 79 78 78 78 77 75 74 75 76 75 74 73 73 69 64 60 56 54 52 49 48 47 46 43 40 39 39 38 38 37 36 34 32 30 29 28 27 26 25 26 28 30 31 30 29 29 29 30 31
85 85 86 84 82 82 84 87 88 87 87 86 86 85 84 85 86 86 85 86 85 81 78 79 80 80 81 81 82 83 83 83 82 82 82 80 79 80 80 79 77 76 77 77 75 74 73 71 67 63 59 55 53 51 49 48 47 46 45 42 39 38 38 37 36 36 35 34 32 30 30 29 28 26 25 26 28 31 33 32 30 30 30 31 32
85 85 86 86 85 87 88 89 89 88 88 87 87 86 86 86 85 85 86 86 85 81 79 80 81 81 81 81 82 82 82 81 83 83 81 81 83 81 78 76 76 77 77 75 74 72 70 65 60 57 55 52 49 48 47 47 47 45 43 41 38 36 36 37 36 35 35 33 32 31 30 29 28 26 26 26 27 30 34 35 33 31 31 32 33
87 87 87 89 90 90 88 89 89 88 87 87 87 87 86 85 84 86 86 86 84 82 81 81 81 82 82 82 82 81 81 82 84 83 82 83 83 78 75 75 75 75 75 74 72 68 64 60 56 54 53 50 47 47 47 47 46 44 41 39 37 35 36 36 35 35 34 33 33 32 30 29 28 27 26 26 26 30 34 36 35 33 32 33 33
88 88 88 88 88 89 88 88 89 88 87 87 87 85 84 85 84 85 86 85 82 83 83 81 80 79 80 81 80 80 81 81 81 81 81 82 80 76 76 75 74 74 74 72 68 63 58 55 54 54 53 51 48 47 47 45 44 42 40 38 36 35 35 35 35 35 34 33 33 33 30 29 28 27 26 26 27 30 34 37 37 35 33 33 34
88 88 88 87 87 88 85 84 86 86 85 85 84 84 84 84 83 83 84 82 82 83 80 78 78 78 79 80 79 80 80 79 78 78 79 79 78 77 77 75 74 72 71 68 63 58 53 53 54 53 52 51 49 47 45 43 42 40 38 36 35 34 33 34 35 35 34 33 33 33 31 29 28 28 28 28 28 30 34 36 37 36 34 33 34
87 87 88 88 88 87 85 85 87 85 83 82 82 82 82 81 80 80 80 80 81 80 77 77 77 76 76 76 77 79 78 76 76 76 77 77 76 75 74 73 70 67 64 60 57 54 52 52 52 51 50 50 48 46 44 41 40 38 37 35 34 33 32 34 36 36 35 33 33 34 32 29 27 28 29 29 29 30 33 35 37 37 36 34 34
82 81 82 84 83 83 84 86 85 82 80 79 79 78 79 79 78 79 81 82 80 78 78 77 76 76 75 75 76 76 74 73 75 75 75 74 72 71 70 69 65 61 56 53 53 53 52 51 51 52 50 49 48 46 43 40 38 36 35 35 34 32 32 34 36 37 36 34 34 34 32 30 27 29 30 30 29 29 32 34 36 37 37 36 35
80 79 79 82 81 80 83 83 82 80 78 78 78 78 79 79 79 82 84 81 78 77 78 76 78 79 78 77 74 72 71 72 73 72 71 71 70 70 68 65 61 56 52 51 53 53 52 51 52 52 49 48 47 44 42 38 36 36 35 35 34 32 32 34 36 37 36 34 34 33 33 30 27 29 30 30 30 30 32 34 35 37 37 37 36
84 85 84 83 80 80 79 79 80 79 76 77 78 77 78 79 81 83 81 78 77 77 75 75 77 77 76 74 71 70 70 70 68 67 68 69 69 67 65 61 57 54 54 55 53 52 53 55 54 52 50 48 45 43 40 37 36 35 34 35 33 32 32 34 36 37 36 34 33 33 33 30 27 29 30 30 32 31 31 33 35 36 37 37 37
88 87 86 81 76 76 75 75 75 73 73 76 77 77 78 78 79 77 76 75 74 74 72 71 70 68 68 66 66 68 66 64 63 64 64 64 65 63 60 57 56 57 56 52 51 53 56 56 54 52 50 47 44 42 39 37 36 34 34 34 33 31 32 34 36 36 35 33 33 34 32 30 28 29 30 30 33 33 32 32 34 35 37 37 36
88 85 85 81 78 78 78 77 76 75 78 81 80 80 81 79 75 71 71 72 71 72 70 68 65 63 63 63 66 65 62 61 62 61 60 60 60 59 57 56 56 54 49 48 52 55 54 53 52 49 46 44 42 40 39 38 36 35 35 34 33 31 32 34 35 34 34 33 33 33 31 30 29 29 29 30 33 35 34 34 34 34 36 37 36
89 88 89 88 88 86 84 84 84 85 85 85 82 79 78 74 70 68 68 70 71 70 67 66 64 61 60 63 65 63 62 62 60 58 57 56 56 56 55 53 50 47 49 55 56 53 50 51 50 46 43 41 40 38 38 38 36 35 34 34 32 31 33 34 34 33 32 32 34 32 30 29 29 29 29 29 32 35 36 36 36 35 35 36 37
88 90 92 90 89 87 86 87 87 87 81 77 73 67 66 65 65 68 70 70 70 68 64 61 62 61 60 62 64 63 63 60 55 54 55 55 55 53 50 47 47 51 56 56 52 51 51 51 49 46 43 41 39 37 36 37 37 35 34 33 32 32 34 33 32 32 30 31 34 31 28 28 28 29 29 30 32 34 35 37 38 37 36 35 35
82 85 90 88 88 87 87 86 84 81 74 67 63 61 63 64 65 67 67 67 66 64 62 60 60 62 61 61 62 62 60 58 55 53 54 54 51 48 48 48 51 54 53 52 53 55 54 52 49 46 44 41 39 36 35 36 36 35 34 33 33 34 34 32 32 30 27 30 34 30 26 26 28 29 31 32 34 36 36 37 39 39 38 36 33
85 88 90 89 88 86 83 81 79 77 75 71 69 69 69 68 67 64 62 63 62 61 62 62 61 59 57 57 59 59 59 58 55 52 51 49 46 46 48 49 49 50 50 53 56 55 52 51 49 45 43 41 38 35 35 36 36 35 33 33 35 35 34 33 31 29 28 30 32 29 25 24 28 31 33 34 35 37 37 37 37 36 36 35 33
87 87 86 83 82 80 78 77 76 76 76 74 71 69 68 67 64 61 60 62 61 62 63 62 60 59 57 58 59 60 58 54 50 50 50 46 46 48 47 46 45 46 48 50 51 50 51 50 48 44 41 39 37 34 34 36 37 35 33 33 35 35 34 32 29 29 29 30 30 29 26 24 29 33 35 35 35 36 39 39 37 33 31 32 32
77 76 77 78 77 75 75 75 74 74 74 73 70 67 66 64 61 60 60 61 61 61 62 61 60 62 63 64 65 61 56 53 49 47 47 46 46 46 43 40 41 43 44 48 50 51 52 51 47 41 37 36 36 33 33 36 38 36 33 33 35 35 34 30 28 28 29 30 29 28 27 26 28 33 36 37 36 36 38 40 40 38 35 33 32
76 78 78 80 79 76 75 75 74 74 74 73 72 70 69 67 65 64 63 64 65 62 63 65 64 67 68 68 67 62 58 57 52 47 47 45 44 45 41 34 34 39 43 49 50 49 50 47 41 36 34 35 36 34 33 36 38 36 33 34 36 35 33 30 29 29 29 31 30 28 28 27 27 31 36 38 37 37 37 38 40 42 41 39 37
84 84 81 81 80 78 76 75 75 74 74 73 72 72 71 70 70 69 68 69 70 68 68 68 67 69 66 64 66 66 63 62 58 55 53 52 52 51 45 36 34 37 41 44 43 40 39 36 32 32 34 35 35 34 33 35 37 35 33 34 36 36 33 31 30 29 30 31 32 30 28 26 26 28 32 36 37 38 38 38 39 41 43 44 42
83 82 82 81 80 79 77 76 76 75 75 75 74 73 72 72 72 73 73 73 73 73 73 72 69 69 67 67 69 66 63 64 63 62 61 61 60 54 48 45 41 39 44 47 42 35 31 30 29 30 33 34 34 33 33 34 36 35 33 35 37 38 36 35 32 32 32 31 31 30 28 26 26 27 28 31 35 38 39 39 39 40 42 44 45
83 83 82 81 81 80 79 78 78 78 78 77 76 76 76 75 75 76 76 76 76 75 74 74 71 70 70 70 68 62 63 66 67 65 64 62 58 51 47 47 46 45 47 50 46 37 33 33 29 29 32 32 31 32 34 35 35 34 34 35 37 38 38 37 33 32 33 32 30 28 26 26 26 27 27 27 30 34 37 38 39 40 42 44 45
84 84 83 82 82 82 80 79 79 79 79 78 78 78 78 78 78 78 77 77 76 75 75 75 73 72 70 68 65 65 67 68 66 63 61 57 52 49 46 46 49 46 40 42 44 40 39 36 28 27 30 29 28 30 34 36 36 35 34 35 35 36 38 38 35 32 33 32 29 27 26 26 28 28 27 26 28 31 35 36 37 38 39 42 44
81 80 80 80 80 80 79 78 78 79 79 79 79 78 78 78 77 77 77 76 75 75 75 74 74 72 71 69 67 68 67 64 61 58 56 51 45 46 46 43 41 36 34 37 41 40 38 33 27 25 27 27 27 27 31 33 34 34 33 33 33 34 36 38 37 33 32 31 29 27 27 28 29 29 29 29 29 30 32 33 34 35 37 39 41
75 72 73 75 75 76 75 76 76 77 77 77 77 77 77 76 76 75 75 74 74 73 73 73 72 71 69 69 68 66 63 60 56 53 51 43 36 36 37 36 35 34 38 42 43 40 33 28 24 22 24 25 25 26 27 29 31 32 33 33 33 33 34 38 40 37 34 33 32 32 31 29 28 29 31 32 31 30 30 31 32 33 35 36 38
66 65 67 70 72 72 72 73 73 73 73 73 74 74 74 74 73 73 72 72 72 71 71 70 69 67 66 64 62 60 57 54 51 48 44 39 36 32 30 33 38 38 39 41 42 39 32 26 23 23 24 24 25 25 26 28 30 32 34 35 34 33 34 37 40 41 38 36 35 33 30 28 28 28 29 29 30 30 30 31 31 32 33 34 36
59 60 63 66 68 68 68 67 68 68 68 68 69 69 69 70 70 69 69 68 68 67 66 65 63 61 59 58 56 53 50 49 47 43 38 38 39 38 34 34 35 35 34 37 41 40 33 27 24 24 25 25 26 26 26 28 30 34 35 36 35 33 33 35 39 41 39 38 36 32 29 29 29 28 26 23 24 26 29 30 30 31 32 32 34
57 59 60 62 62 62 63 63 64 63 63 64 64 65 65 65 65 65 64 63 62 61 60 59 56 54 52 51 49 46 44 44 44 42 39 41 42 40 39 36 32 32 32 36 41 41 34 27 24 24 25 26 27 26 25 27 29 34 37 36 36 34 33 34 37 40 38 36 35 32 30 29 29 29 28 25 23 23 26 29 30 30 31 31 33
55 56 57 56 55 55 56 57 58 58 58 59 59 60 60 60 59 59 58 57 55 54 53 52 49 48 47 46 44 40 40 40 40 40 39 40 38 35 35 33 32 32 33 36 39 37 31 28 26 26 26 25 25 26 25 26 28 32 37 37 36 34 34 35 36 37 36 34 33 32 31 30 29 30 31 31 30 28 27 28 30 30 30 30 31
52 53 53 52 49 48 49 50 51 52 53 53 54 54 53 53 53 52 51 50 49 48 47 45 43 42 41 41 39 38 38 39 38 37 36 36 33 31 31 30 32 35 34 34 34 32 28 28 28 28 29 28 28 30 28 28 29 31 34 37 37 34 34 36 36 36 36 35 35 34 34 33 31 31 31 33 34 32 29 27 28 29 29 30 32
49 49 48 46 44 41 42 45 46 47 48 47 47 47 47 47 46 45 45 44 43 42 41 40 38 37 37 37 36 35 35 35 34 33 33 33 31 31 33 33 36 38 34 29 29 28 29 32 33 32 32 33 32 32 32 32 32 32 33 34 36 34 34 37 38 38 38 38 38 37 37 35 34 32 32 32 31 30 28 25 26 28 29 31 32
45 44 42 41 41 37 36 40 41 41 41 40 40 41 40 40 40 39 39 39 38 37 36 35 33 32 33 33 32 31 31 31 31 31 30 31 30 31 36 38 40 40 35 31 28 26 29 36 38 35 34 32 30 31 33 33 32 33 34 34 34 33 34 38 40 40 41 40 40 39 39 38 38 37 35 32 30 29 28 27 26 27 28 28 30
41 39 37 37 36 34 34 36 35 34 34 33 34 34 34 34 34 34 34 34 33 33 32 30 29 29 29 29 29 28 28 27 28 28 29 29 30 31 36 40 41 41 38 34 32 30 30 34 37 35 31 29 31 31 32 33 33 34 35 36 36 34 34 38 40 40 42 42 41 41 41 42 42 41 38 34 33 32 31 30 29 28 27 26 27
37 34 33 32 31 30 30 31 30 29 28 28 29 30 30 30 30 30 30 30 30 29 28 28 27 27 26 26 26 25 25 25 26 27 27 28 29 31 34 39 42 44 42 38 36 35 32 32 36 36 32 32 37 37 32 32 36 38 37 37 39 39 37 39 40 40 41 40 39 41 42 42 41 41 40 38 36 35 34 33 33 33 31 30 30
35 33 31 29 28 27 27 28 28 26 25 25 26 26 27 27 27 27 27 28 27 27 26 26 25 25 25 24 24 24 24 25 25 26 27 27 28 30 33 37 41 44 46 43 41 41 39 38 40 40 38 38 39 39 35 35 39 40 39 39 40 41 40 40 41 41 42 39 37 39 40 40 39 38 39 41 39 37 37 38 38 38 38 37 36
36 33 31 29 27 26 25 26 27 26 24 24 24 25 25 25 26 27 27 26 26 26 25 25 25 25 25 24 24 25 25 25 25 26 27 27 28 29 31 34 39 43 47 48 45 44 44 43 42 42 41 41 41 41 38 38 41 41 40 41 42 41 41 41 41 41 41 40 39 39 39 39 38 37 38 39 40 39 39 40 41 41 41 40 38
37 35 33 30 28 27 26 26 28 27 25 24 24 24 24 24 25 26 26 26 25 25 25 25 25 25 25 24 25 25 26 26 26 26 27 28 28 28 29 32 36 40 45 49 49 47 46 46 45 43 42 43 46 45 42 41 44 43 41 41 42 42 42 42 43 42 41 41 41 40 40 40 38 38 38 37 36 37 38 40 42 42 43 42 40
39 37 36 33 30 29 29 28 30 29 25 23 24 24 24 23 24 25 25 25 25 25 24 24 24 24 24 24 25 25 26 27 28 28 29 30 31 31 31 32 34 38 42 46 49 50 49 48 48 47 45 46 49 47 44 42 43 44 42 40 41 42 44 44 43 43 42 41 40 39 40 40 38 37 38 36 35 36 38 40 40 40 43 44 42
41 40 39 36 33 32 32 32 32 31 26 23 24 25 24 23 23 24 24 25 25 25 24 24 24 24 25 25 26 27 28 29 29 30 32 32 33 33 33 33 33 36 39 43 47 49 50 50 50 50 48 48 50 48 45 43 42 43 43 42 41 42 44 45 44 43 43 41 39 38 38 38 37 37 37 37 37 38 38 40 40 39 41 43 42
44 43 41 39 36 35 35 35 35 34 29 26 27 28 26 24 23 24 24 24 25 25 24 24 24 25 26 26 27 28 29 30 30 31 33 33 34 34 34 34 34 35 38 41 44 47 49 50 50 51 49 49 50 48 47 45 43 43 44 44 43 43 43 45 45 44 43 41 39 39 39 38 37 37 37 37 38 40 42 42 43 40 40 41 41
46 45 43 41 39 38 38 39 39 37 33 30 30 31 30 26 25 25 24 24 24 25 25 25 25 26 27 28 29 29 30 30 31 31 32 33 34 35 35 35 35 36 37 39 42 45 47 49 49 50 51 50 50 49 50 49 45 45 46 46 46 45 44 45 46 46 45 42 40 40 40 39 39 38 39 39 40 43 45 45 45 44 43 42 42
47 45 44 44 42 41 41 42 43 41 37 35 34 34 33 30 28 27 27 26 26 26 27 26 26 27 29 30 30 31 31 31 32 32 33 33 34 35 36 36 36 36 38 39 41 43 45 47 48 49 50 51 52 52 53 53 49 48 49 50 50 48 46 46 46 47 48 46 44 44 43 43 42 40 41 41 42 43 45 45 45 47 46 45 44
Wind_Direction
278 278 279 280 281 281 282 282 282 283 283 284 285 285 286 286 287 287 288 289 289 290 291 292 293 293 294 296 297 297 298 299 299 300 301 301 301 301 301 302 303 304 304 305 306 307 306 306 308 310 309 309 310 311 312 313 312 312 313 313 312 312 312 311 308 307 309 310 306 304 304 301 298 294 289 285 279 273 266 259 251 245 241 235 231
278 278 279 279 280 280 280 280 281 281 282 283 283 284 285 285 285 286 287 288 288 290 291 292 292 293 294 296 297 297 298 298 299 300 301 301 301 301 301 303 304 304 304 305 306 306 305 306 308 309 308 308 310 311 312 312 311 311 312 312 311 311 311 309 306 306 308 309 304 303 303 298 295 292 287 282 276 269 263 256 249 244 240 236 232
277 277 278 278 279 279 279 280 280 280 281 282 282 283 284 284 284 286 287 288 288 290 291 292 292 293 295 296 296 297 298 298 299 300 300 301 301 301 301 303 303 304 304 305 305 305 304 305 308 308 307 308 310 310 311 310 310 311 311 310 310 310 310 306 304 305 308 307 303 302 301 295 292 289 285 280 273 266 260 254 247 242 240 236 234
277 277 277 278 278 278 279 280 280 280 281 281 282 282 283 284 285 287 287 287 289 290 292 292 292 294 295 296 296 297 298 298 299 299 300 300 300 300 301 302 303 303 303 304 305 303 303 305 307 307 306 308 310 310 309 309 309 310 309 309 309 309 308 304 302 304 307 306 302 300 298 293 290 287 283 278 270 264 258 251 245 241 239 237 235
277 277 277 278 278 279 279 280 280 281 282 282 283 283 284 285 287 287 287 289 290 291 292 292 293 295 296 296 296 297 298 298 299 299 299 299 299 300 301 301 302 302 303 303 303 302 303 305 305 305 306 308 309 308 308 307 308 308 308 308 309 308 305 302 301 302 306 305 300 298 294 290 287 284 280 275 268 262 256 250 245 240 238 237 236
275 276 277 277 278 279 279 279 281 282 282 282 283 284 286 286 287 286 288 290 290 290 292 291 293 295 295 296 296 297 298 298 298 298 298 298 299 300 300 300 300 301 302 302 301 302 303 304 303 303 305 308 308 307 306 306 307 307 306 307 307 306 302 300 299 301 305 303 298 295 291 287 284 280 276 271 265 260 254 250 245 241 239 237 237
274 275 276 277 278 278 279 280 281 282 281 281 283 285 286 287 286 286 289 290 289 289 291 291 292 294 295 295 296 297 297 297 297 297 298 298 298 299 299 299 299 300 301 301 300 301 302 302 302 302 305 307 306 305 305 305 305 305 305 306 306 303 300 298 298 300 302 300 295 292 288 285 282 277 273 268 262 258 253 249 245 242 239 238 238
275 276 277 277 278 278 280 281 281 280 280 281 283 285 286 286 286 287 289 289 289 289 290 291 291 293 294 294 295 296 296 297 297 297 297 297 297 298 298 299 299 299 300 299 300 301 302 301 301 302 305 305 304 303 303 304 304 304 304 305 303 300 297 297 297 298 299 297 292 287 284 282 279 274 269 263 259 256 252 248 245 242 240 239 239
276 277 278 278 279 280 281 281 281 280 281 283 284 286 286 286 287 289 289 289 289 290 291 291 290 291 292 293 295 295 296 296 296 296 295 295 296 297 298 298 298 299 299 299 300 301 301 300 300 302 303 303 302 302 302 302 302 302 303 302 300 297 295 296 296 296 295 292 288 283 280 279 276 271 266 259 255 252 250 248 245 243 241 240 239
276 277 278 279 279 280 280 281 282 282 283 284 285 286 286 286 288 289 288 289 290 290 291 292 291 290 291 292 294 294 295 295 295 295 294 294 296 297 297 297 298 298 298 299 300 300 300 300 301 301 301 301 301 301 301 301 301 301 300 299 297 294 294 295 294 292 291 287 283 278 276 276 272 267 263 257 251 249 248 247 246 244 242 241 240
276 277 278 279 279 279 280 281 282 283 284 284 285 286 286 287 288 287 287 288 290 290 290 292 292 291 291 292 293 294 295 294 295 295 294 294 296 297 296 296 296 297 298 298 298 299 300 300 300 300 299 300 301 300 299 299 299 298 297 296 293 291 292 293 290 288 286 283 278 274 272 271 269 264 260 256 249 246 246 246 246 245 243 242 241
275 276 276 277 278 279 280 281 282 283 283 284 285 285 286 286 287 286 286 287 288 288 289 290 291 292 292 292 293 294 294 293 294 294 293 294 296 297 295 295 296 296 296 297 298 299 299 299 298 297 298 300 300 299 298 297 296 296 294 292 290 289 290 289 286 284 282 279 273 271 269 267 265 262 258 255 249 244 243 244 246 246 244 242 241
275 275 276 276 277 279 279 280 280 281 282 283 284 284 284 285 285 285 286 286 286 287 288 289 289 290 292 292 292 293 292 293 293 292 292 295 296 295 294 295 296 295 295 296 297 298 298 297 296 296 298 300 299 298 296 294 294 293 291 288 287 286 287 286 282 280 278 274 269 268 267 264 262 259 256 254 248 243 241 242 244 247 246 243 242
275 275 276 276 277 278 278 278 279 280 281 282 282 283 284 284 285 285 285 285 285 287 289 289 289 290 291 291 292 292 293 293 291 291 292 294 294 294 294 294 294 294 295 296 297 296 295 293 293 294 297 298 298 297 294 293 291 290 287 285 284 284 284 281 278 275 273 269 266 266 265 261 258 257 254 251 246 240 240 241 243 247 247 245 244
275 275 275 276 276 277 277 277 278 279 279 281 282 283 283 284 284 284 284 285 286 288 289 288 289 290 290 290 292 293 293 291 291 291 292 293 293 293 294 294 294 294 295 296 295 294 292 291 291 294 296 297 297 295 293 291 288 286 284 282 281 282 280 276 273 272 269 266 262 263 263 259 255 253 251 248 244 240 240 242 244 247 248 247 245
274 274 275 275 275 276 276 276 278 279 279 280 281 282 282 283 284 284 284 286 288 289 288 289 290 291 290 291 292 293 292 291 291 292 292 292 292 293 294 294 295 295 295 294 293 291 290 290 292 296 297 298 297 294 291 287 285 283 281 278 278 277 274 270 269 269 267 263 260 260 261 258 251 249 249 247 245 241 240 242 245 248 249 249 248
274 275 275 275 275 275 276 277 277 278 280 280 280 281 282 283 283 283 285 286 287 287 288 290 290 290 290 291 292 291 291 291 291 291 290 290 292 293 294 295 295 294 293 292 291 290 290 290 294 298 299 298 296 292 288 284 281 279 277 275 274 272 268 267 266 266 264 260 258 258 257 254 249 246 247 248 247 244 242 242 245 248 250 251 251
275 275 275 276 276 275 276 276 276 278 279 279 279 281 282 282 282 283 285 285 285 286 288 288 288 289 290 290 289 288 289 291 290 290 289 290 292 293 294 294 293 290 289 288 288 290 291 292 296 300 299 297 294 289 285 281 278 275 274 272 270 268 265 265 265 263 261 258 256 255 255 252 246 245 246 246 245 245 244 244 245 247 249 251 252
275 276 276 276 275 276 276 276 277 278 278 279 280 282 283 283 283 283 284 283 284 286 287 287 288 289 288 286 285 286 289 289 289 289 290 290 291 293 294 292 289 287 287 287 286 288 293 295 297 299 298 294 291 287 283 278 275 272 271 269 267 265 264 264 262 260 258 255 252 251 253 252 246 243 245 243 243 244 245 245 246 246 248 250 251
275 275 274 273 273 274 274 276 277 276 277 280 281 282 283 282 283 283 282 283 284 286 287 287 287 287 285 283 285 287 288 288 288 290 291 290 292 293 291 288 287 288 287 285 284 287 294 295 295 296 294 291 287 284 280 276 272 269 267 265 263 262 261 260 258 257 255 253 249 249 250 250 246 242 242 241 240 244 247 248 248 247 247 248 251
273 273 272 271 271 272 273 275 275 275 278 280 280 281 281 281 281 280 280 282 284 285 286 285 284 283 282 283 285 285 284 286 288 289 289 291 292 291 289 288 288 287 283 284 288 290 293 294 294 293 291 287 285 282 278 273 269 266 264 262 261 259 257 256 255 255 254 251 247 247 248 246 244 242 240 238 236 241 249 253 253 251 248 247 249
272 272 271 271 272 272 273 275 276 278 279 280 280 280 280 280 279 277 278 281 283 284 283 282 281 280 281 282 282 283 284 287 288 287 288 290 290 289 289 288 285 281 283 289 291 290 291 293 292 290 287 285 283 281 276 272 268 264 261 260 259 255 251 251 252 252 250 247 246 245 245 243 243 241 238 237 235 238 247 254 256 255 252 250 248
271 271 272 272 273 274 274 275 277 278 279 280 280 279 279 278 275 275 278 280 281 281 280 279 278 278 278 280 281 284 285 285 285 285 287 287 287 288 285 283 281 283 288 290 289 289 291 292 290 288 285 283 281 278 273 269 267 263 258 258 257 250 248 250 251 248 243 243 248 244 238 240 241 241 237 235 236 239 245 249 252 255 256 255 253
270 271 273 274 275 275 275 275 276 276 277 276 274 273 273 273 273 276 278 277 278 278 276 275 276 279 280 282 284 285 284 282 282 284 286 286 286 284 281 282 284 287 289 288 288 290 291 290 287 286 284 282 278 272 268 265 262 259 255 254 252 247 247 250 250 242 234 242 251 246 236 239 240 240 240 236 234 237 243 246 248 251 253 255 257
270 273 274 275 275 275 275 275 275 274 273 272 271 271 271 272 274 275 274 275 275 274 274 275 277 278 279 282 283 283 282 280 280 282 284 285 286 285 286 288 288 289 290 288 289 289 289 288 286 284 282 279 273 266 263 260 256 254 251 250 247 245 246 250 247 234 228 239 250 250 241 242 242 240 242 241 235 234 236 242 247 250 252 253 255
272 274 274 274 275 274 274 275 275 274 273 272 272 272 273 274 274 273 274 275 275 274 275 278 278 275 275 276 276 278 279 278 279 281 281 281 285 289 292 294 292 290 288 287 288 288 287 286 286 284 280 275 267 260 257 255 254 251 248 247 245 245 247 247 239 227 227 234 241 248 247 247 248 243 243 243 239 235 234 236 240 244 247 250 253
271 271 273 274 274 274 275 275 274 273 273 273 272 272 272 272 272 272 273 273 273 274 275 275 274 273 273 273 272 273 274 276 277 278 277 277 282 286 291 295 292 287 284 284 286 286 285 284 284 280 275 269 261 255 252 252 252 251 247 244 243 244 246 238 227 224 231 235 235 243 250 250 251 246 243 243 241 238 236 236 237 239 240 241 244
269 271 273 274 274 274 274 273 272 272 273 273 273 272 271 270 270 269 269 268 268 269 269 270 270 270 272 272 271 271 273 274 272 271 273 275 276 280 284 284 282 279 279 283 284 283 282 281 279 272 267 265 258 251 248 249 250 249 246 244 243 244 240 227 220 228 234 235 233 238 246 249 250 247 243 243 242 239 237 237 239 240 243 243 242
272 273 273 273 274 273 272 271 271 272 272 273 273 272 271 271 271 270 268 267 268 268 268 268 268 270 272 271 271 272 274 273 269 270 272 272 274 277 277 270 265 270 278 285 286 284 280 276 271 265 264 264 257 249 246 246 248 248 246 245 245 241 232 218 219 232 236 236 233 234 241 244 247 247 245 244 242 239 237 237 238 240 243 245 246
273 273 273 272 271 271 271 271 272 272 272 272 272 272 272 272 271 271 270 270 269 269 269 268 268 269 269 268 270 272 272 271 270 272 273 274 277 277 273 265 258 267 279 283 283 282 277 272 266 262 263 261 254 248 247 246 247 250 248 247 246 242 229 215 218 230 234 238 236 235 240 244 247 247 247 246 241 238 236 236 237 238 239 242 243
272 272 272 271 271 271 271 272 272 272 272 272 272 272 272 272 272 272 271 271 270 270 270 269 269 269 269 270 272 271 270 271 273 274 274 276 278 275 270 262 259 271 280 278 275 275 276 274 266 258 256 259 256 250 249 247 248 251 249 248 247 243 231 216 217 228 231 234 236 237 241 247 253 252 250 249 242 238 236 237 237 237 237 238 239
271 271 271 272 271 271 271 271 271 271 271 271 272 272 272 272 271 271 271 271 270 270 270 269 269 269 270 272 272 271 271 273 274 275 276 276 273 269 267 266 267 272 273 270 270 272 277 275 263 253 251 257 261 255 251 250 250 250 248 249 246 242 234 219 215 225 229 230 233 236 239 249 258 258 257 257 250 241 237 238 239 240 239 237 237
269 270 271 271 270 269 269 270 270 270 271 271 271 271 271 271 271 270 270 270 270 270 270 270 270 270 270 271 270 272 273 274 275 274 275 273 269 266 266 268 268 259 250 257 268 272 273 266 255 254 256 259 263 261 258 255 252 250 248 248 244 240 235 224 216 218 226 229 231 235 240 250 257 259 261 263 259 248 241 241 241 243 243 240 238
269 269 268 269 270 270 270 270 270 270 270 270 270 270 270 270 270 270 270 270 270 270 270 270 271 271 271 271 272 272 273 273 271 269 269 266 261 264 265 262 259 252 249 254 263 266 263 256 251 254 260 264 266 266 264 257 247 243 247 246 241 236 231 226 221 216 218 225 231 237 243 249 253 258 264 265 261 250 242 241 242 243 244 243 240
269 268 267 269 270 271 271 270 270 269 269 269 270 270 270 270 270 270 270 271 271 271 271 272 272 273 273 273 272 272 272 270 267 265 265 261 253 256 259 256 257 258 254 253 257 257 253 250 247 248 255 262 264 263 260 251 237 230 239 244 240 235 231 227 225 221 218 218 226 234 238 243 249 258 265 265 258 248 242 241 242 244 245 244 242
267 268 269 270 270 270 270 270 269 269 269 269 269 270 270 271 271 271 271 271 272 272 272 272 273 272 272 272 271 270 269 266 263 260 258 255 251 250 252 252 254 253 247 246 252 253 250 246 242 246 252 254 255 253 251 247 233 223 231 242 241 237 233 228 226 226 224 220 221 226 230 237 245 255 262 263 259 253 248 244 244 246 246 246 244
268 270 271 271 270 270 270 270 269 269 269 269 270 270 271 271 272 272 272 272 272 272 271 271 271 270 269 268 267 266 264 262 260 257 251 249 249 249 251 249 243 240 237 238 246 251 247 239 236 242 247 247 245 242 243 244 234 224 226 236 241 238 233 228 226 227 228 224 221 222 226 233 242 253 261 264 267 268 261 251 246 246 247 247 246
269 271 271 271 270 270 270 270 271 271 270 271 271 271 271 271 271 271 271 270 270 269 269 269 268 267 266 264 263 260 259 259 258 257 253 250 249 247 246 244 235 230 231 234 242 247 242 236 234 235 239 238 235 238 242 244 238 230 228 231 237 238 231 225 225 227 227 225 225 227 230 233 239 250 259 263 265 270 271 259 248 246 246 247 248
269 270 271 271 271 271 271 271 272 273 272 271 270 270 270 270 270 269 269 268 267 266 266 266 265 264 262 262 260 257 255 257 256 254 252 249 247 239 233 237 232 224 226 230 235 238 234 235 235 231 233 233 237 245 248 247 240 232 232 232 234 236 231 225 223 224 225 225 226 230 234 236 237 242 249 255 259 262 267 263 249 244 245 245 246
271 272 272 272 272 272 271 271 271 272 271 271 270 269 269 268 267 266 266 265 264 264 263 262 261 260 260 259 259 257 254 254 253 250 248 245 239 230 223 227 227 220 218 220 229 232 227 229 232 233 238 240 246 250 248 245 237 227 227 227 231 234 229 223 221 222 224 225 225 226 231 236 239 242 242 244 249 253 259 262 252 244 242 244 246
273 275 275 275 274 272 271 271 271 270 270 270 269 269 267 267 265 264 263 262 261 261 261 260 259 257 257 258 257 255 253 251 249 246 243 239 233 225 218 220 222 216 210 210 216 223 227 229 230 234 241 245 247 246 243 239 229 224 224 221 225 229 224 221 222 224 225 226 226 224 226 231 235 240 241 239 242 246 251 256 256 251 246 245 247
274 276 277 277 277 275 272 272 272 270 270 269 268 267 265 264 263 262 260 260 260 260 260 259 257 256 255 256 255 254 251 248 246 243 240 236 230 224 219 218 218 213 207 206 208 213 224 231 227 226 232 237 235 234 237 231 217 218 223 222 224 226 223 222 222 224 227 228 228 226 226 229 229 232 235 237 239 242 247 252 254 253 247 243 246
274 275 277 277 277 276 274 273 272 271 271 268 266 264 263 262 261 260 259 258 258 257 257 257 256 255 254 254 254 252 250 247 243 241 238 234 229 224 220 218 216 213 209 207 207 209 216 223 221 218 220 226 227 226 232 228 215 215 221 221 223 223 223 223 221 222 226 228 229 229 231 233 233 233 235 235 235 236 240 247 249 247 241 238 240
272 273 273 273 274 273 271 272 272 271 269 265 264 262 261 260 259 258 256 255 254 253 254 254 254 254 253 252 249 247 246 245 242 239 236 234 230 225 221 220 218 216 213 211 211 212 215 217 217 217 220 224 224 224 229 227 218 217 220 221 221 221 221 223 222 222 225 226 228 230 232 235 237 237 237 237 236 234 235 238 239 237 235 236 238
272 272 271 270 270 269 268 268 269 270 268 264 261 259 258 256 255 255 254 253 251 250 249 250 250 249 249 247 244 241 239 239 239 236 234 232 231 229 225 223 221 219 217 217 217 218 220 220 219 219 221 224 225 225 228 228 221 218 219 221 221 220 219 221 222 223 224 224 227 230 232 235 236 236 235 237 239 239 236 235 234 233 235 239 243
272 272 271 269 267 266 266 266 268 268 266 265 262 259 257 253 252 252 252 252 249 246 245 245 245 244 244 244 241 239 236 234 233 232 231 230 232 233 231 228 225 224 221 221 222 221 223 224 223 221 220 223 226 228 230 229 223 219 219 221 222 220 220 221 223 224 224 224 226 229 232 235 235 234 233 233 236 239 239 239 239 240 242 244 247
272 271 270 269 267 266 265 264 266 267 266 265 264 262 259 255 253 252 251 250 246 243 241 240 240 240 239 239 237 237 236 233 232 230 229 228 229 232 234 233 230 228 226 225 225 224 225 225 224 223 221 222 226 229 229 227 225 223 222 223 223 221 222 224 225 227 227 226 226 229 233 237 236 235 233 232 233 236 237 239 242 245 246 246 247
270 269 269 268 266 265 264 264 265 267 266 263 263 263 261 259 255 253 251 249 246 242 240 238 238 238 237 237 236 235 236 236 235 234 232 231 230 232 235 236 234 232 229 228 227 227 227 227 225 224 223 223 225 226 224 223 226 228 227 227 226 224 224 226 226 228 229 228 230 232 235 238 238 237 235 232 232 234 233 234 237 241 245 246 247
268 267 267 266 265 263 263 263 263 264 264 261 261 262 260 258 257 256 253 250 247 244 241 240 240 240 241 241 240 239 238 238 239 238 237 236 235 236 237 239 240 237 233 231 230 229 229 229 228 227 225 223 224 224 220 219 225 230 231 230 229 228 228 228 227 228 231 232 234 236 237 238 238 238 237 235 233 232 230 230 233 237 242 245 245
266 265 265 264 262 261 261 261 262 263 262 259 259 260 260 257 256 256 254 252 249 246 244 243 242 243 244 245 246 245 243 242 242 241 240 239 238 239 240 242 242 241 238 234 232 231 230 231 231 230 228 224 223 222 218 217 221 227 231 233 232 231 233 232 230 229 231 233 236 238 239 239 240 239 239 239 237 233 231 232 234 238 241 244 245
265 264 263 263 261 260 259 259 261 263 262 260 259 259 261 260 257 256 255 253 250 249 247 245 245 245 244 244 245 246 246 246 245 244 243 241 240 241 242 243 242 242 240 237 234 232 231 232 232 232 230 226 223 221 218 218 221 222 224 231 234 233 234 236 235 232 232 234 236 239 240 242 243 243 241 241 240 238 236 236 238 241 243 245 247
Height
10902 10900 10900 10899 10898 10898 10897 10897 10896 10896 10895 10894 10894 10893 10892 10891 10890 10889 10888 10887 10885 10884 10884 10884 10883 10882 10881 10880 10879 10878 10876 10873 10871 10869 10868 10867 10866 10866 10865 10864 10863 10861 10858 10856 10853 10851 10848 10847 10848 10847 10844 10842 10840 10839 10837 10834 10833 10831 10830 10828 10826 10824 10822 10820 10818 10817 10817 10816 10815 10814 10813 10812 10812 10812 10811 10811 10810 10810 10810 10810 10811 10812 10813 10813 10814
10897 10896 10894 10894 10893 10892 10891 10891 10891 10891 10890 10890 10889 10888 10887 10886 10885 10884 10883 10882 10881 10880 10879 10878 10878 10877 10876 10875 10873 10872 10870 10868 10866 10864 10862 10862 10861 10860 10860 10859 10858 10856 10854 10852 10849 10846 10843 10843 10843 10842 10840 10838 10836 10834 10832 10830 10828 10827 10825 10824 10822 10820 10818 10816 10815 10814 10814 10813 10813 10812 10810 10809 10809 10809 10809 10808 10808 10807 10807 10808 10809 10810 10811 10812 10812
10892 10891 10889 10888 10886 10886 10885 10886 10886 10886 10886 10885 10884 10883 10882 10881 10880 10879 10878 10877 10876 10875 10873 10872 10872 10871 10870 10869 10868 10867 10865 10864 10862 10860 10857 10856 10856 10855 10855 10854 10852 10851 10850 10847 10845 10842 10839 10837 10838 10837 10836 10834 10832 10830 10828 10826 10824 10823 10821 10820 10818 10816 10814 10813 10812 10811 10811 10810 10810 10809 10808 10807 10806 10807 10806 10806 10805 10805 10805 10806 10807 10808 10809 10810 10811
10888 10885 10883 10882 10880 10879 10880 10881 10881 10881 10880 10880 10880 10878 10877 10875 10875 10873 10872 10872 10871 10870 10868 10867 10865 10865 10864 10863 10862 10861 10860 10859 10857 10855 10853 10851 10850 10850 10849 10849 10847 10846 10845 10843 10840 10837 10834 10832 10832 10833 10831 10829 10827 10826 10824 10822 10820 10819 10817 10816 10814 10813 10811 10809 10809 10808 10808 10808 10807 10807 10806 10804 10804 10804 10804 10803 10803 10803 10803 10804 10805 10806 10807 10808 10809
10884 10877 10875 10875 10874 10874 10874 10876 10875 10875 10875 10875 10874 10873 10872 10870 10869 10868 10867 10866 10865 10864 10863 10861 10860 10859 10858 10857 10856 10855 10854 10853 10852 10851 10849 10846 10845 10844 10844 10843 10842 10841 10839 10838 10836 10832 10829 10827 10827 10827 10826 10824 10823 10821 10819 10817 10815 10814 10813 10812 10811 10809 10808 10806 10806 10805 10805 10805 10804 10804 10803 10802 10801 10801 10801 10801 10801 10801 10801 10802 10803 10803 10805 10806 10807
10878 10870 10869 10870 10869 10868 10869 10871 10870 10870 10869 10869 10869 10868 10867 10865 10864 10863 10862 10860 10860 10859 10858 10857 10855 10853 10852 10851 10850 10849 10848 10848 10847 10845 10844 10841 10839 10839 10838 10838 10837 10836 10834 10833 10830 10828 10824 10822 10822 10822 10821 10820 10818 10816 10815 10813 10811 10810 10809 10807 10807 10806 10804 10803 10802 10802 10801 10801 10801 10801 10800 10799 10799 10799 10798 10798 10798 10798 10799 10800 10801 10802 10803 10804 10805
10871 10866 10865 10865 10864 10863 10864 10866 10865 10864 10863 10864 10863 10863 10861 10860 10858 10857 10856 10855 10854 10853 10853 10851 10850 10848 10846 10845 10844 10843 10842 10842 10841 10840 10839 10837 10835 10833 10833 10832 10832 10830 10829 10827 10825 10823 10820 10817 10816 10817 10816 10815 10813 10811 10810 10809 10807 10806 10805 10803 10803 10802 10801 10800 10799 10798 10798 10798 10798 10798 10798 10797 10796 10796 10796 10796 10796 10796 10797 10798 10799 10800 10801 10802 10803
10865 10861 10860 10860 10859 10858 10859 10860 10859 10858 10857 10858 10857 10857 10856 10854 10853 10852 10850 10848 10848 10848 10848 10846 10844 10842 10840 10839 10838 10838 10836 10835 10834 10834 10833 10832 10830 10828 10827 10827 10826 10825 10823 10822 10820 10818 10815 10812 10811 10811 10811 10810 10808 10807 10805 10804 10803 10802 10801 10800 10799 10798 10797 10796 10795 10795 10794 10794 10794 10795 10795 10794 10794 10794 10794 10794 10794 10794 10795 10796 10797 10798 10799 10800 10801
10860 10857 10855 10854 10853 10854 10854 10853 10852 10851 10851 10852 10852 10852 10851 10849 10847 10846 10844 10842 10842 10842 10842 10840 10838 10836 10834 10833 10832 10831 10830 10829 10828 10827 10826 10826 10825 10823 10821 10820 10820 10819 10818 10816 10814 10812 10810 10807 10805 10806 10806 10805 10803 10802 10801 10800 10799 10798 10797 10796 10795 10794 10793 10793 10791 10791 10791 10790 10791 10791 10792 10791 10791 10791 10792 10792 10792 10792 10792 10794 10795 10796 10797 10798 10799
10856 10853 10851 10848 10847 10849 10849 10847 10845 10845 10845 10845 10845 10845 10845 10844 10841 10840 10838 10837 10837 10837 10837 10834 10832 10830 10829 10827 10826 10825 10823 10822 10821 10820 10819 10819 10819 10817 10815 10814 10813 10812 10811 10810 10808 10807 10805 10802 10800 10800 10800 10799 10798 10797 10796 10796 10795 10794 10793 10793 10792 10791 10790 10789 10788 10787 10787 10787 10787 10788 10788 10788 10788 10788 10789 10789 10790 10790 10790 10792 10793 10794 10795 10796 10797
10852 10850 10845 10842 10842 10843 10843 10841 10839 10838 10838 10839 10839 10839 10838 10837 10835 10833 10832 10832 10832 10832 10831 10828 10826 10824 10823 10821 10819 10819 10817 10815 10813 10812 10812 10812 10812 10812 10809 10807 10806 10806 10805 10804 10803 10801 10799 10797 10795 10794 10794 10794 10793 10792 10791 10791 10791 10790 10789 10789 10788 10787 10787 10786 10785 10784 10783 10784 10784 10785 10785 10785 10785 10785 10786 10787 10788 10788 10788 10789 10791 10792 10793 10794 10795
10848 10846 10840 10837 10837 10838 10838 10835 10834 10833 10832 10832 10832 10832 10831 10830 10829 10826 10826 10826 10826 10826 10824 10822 10820 10818 10817 10815 10813 10812 10811 10809 10806 10805 10805 10804 10805 10805 10804 10801 10800 10799 10799 10798 10797 10796 10794 10792 10790 10789 10789 10789 10788 10787 10787 10786 10786 10786 10785 10784 10785 10784 10783 10782 10782 10781 10780 10780 10781 10782 10782 10782 10782 10782 10783 10784 10786 10786 10787 10788 10789 10790 10791 10792 10793
10842 10840 10836 10832 10831 10832 10832 10830 10828 10827 10827 10826 10826 10826 10824 10824 10822 10820 10820 10820 10820 10820 10818 10816 10814 10812 10810 10808 10806 10805 10804 10802 10800 10799 10798 10797 10798 10799 10798 10796 10795 10793 10792 10792 10792 10790 10789 10787 10785 10784 10783 10784 10784 10783 10782 10782 10782 10781 10780 10780 10780 10781 10780 10779 10778 10778 10777 10777 10777 10778 10779 10779 10779 10780 10781 10782 10783 10784 10785 10785 10787 10788 10789 10790 10791
10835 10833 10830 10827 10825 10825 10825 10823 10822 10822 10822 10820 10820 10820 10818 10817 10816 10813 10813 10814 10814 10813 10812 10810 10807 10806 10803 10801 10799 10798 10797 10796 10794 10792 10791 10790 10790 10792 10792 10791 10790 10787 10786 10785 10786 10785 10784 10782 10780 10779 10778 10778 10779 10778 10777 10777 10777 10777 10776 10776 10776 10777 10776 10775 10775 10774 10774 10774 10774 10775 10776 10776 10776 10777 10778 10779 10780 10781 10782 10783 10785 10786 10787 10788 10789
10828 10826 10824 10822 10820 10818 10818 10817 10816 10816 10816 10815 10814 10813 10811 10811 10809 10806 10806 10808 10808 10807 10805 10804 10802 10799 10796 10794 10792 10791 10790 10789 10788 10786 10785 10783 10783 10784 10785 10784 10784 10782 10780 10779 10779 10780 10779 10777 10776 10775 10774 10773 10774 10773 10773 10773 10772 10772 10772 10771 10772 10773 10772 10772 10771 10770 10771 10772 10771 10772 10773 10774 10774 10775 10776 10776 10777 10778 10780 10781 10783 10784 10785 10786 10788
10817 10818 10817 10816 10814 10811 10811 10810 10810 10810 10810 10811 10809 10807 10805 10805 10803 10800 10800 10801 10800 10800 10799 10798 10796 10793 10789 10788 10786 10784 10783 10783 10781 10780 10779 10777 10776 10777 10778 10777 10777 10777 10775 10773 10773 10773 10773 10772 10771 10770 10769 10768 10768 10768 10768 10768 10768 10768 10767 10767 10768 10768 10768 10768 10767 10767 10767 10768 10769 10769 10770 10771 10772 10773 10773 10773 10775 10776 10778 10780 10781 10783 10784 10785 10786
10807 10811 10809 10808 10808 10805 10804 10804 10803 10804 10805 10805 10803 10801 10800 10798 10796 10793 10794 10794 10793 10793 10792 10791 10789 10785 10783 10781 10779 10777 10776 10776 10775 10774 10772 10770 10770 10771 10771 10771 10771 10771 10771 10769 10767 10767 10767 10767 10766 10765 10765 10764 10763 10763 10764 10763 10763 10763 10763 10763 10764 10764 10764 10764 10764 10764 10764 10765 10766 10766 10767 10768 10770 10770 10770 10772 10773 10775 10776 10778 10780 10781 10782 10783 10785
10799 10802 10803 10802 10801 10799 10797 10797 10797 10798 10798 10797 10797 10797 10795 10792 10788 10786 10786 10786 10785 10785 10785 10784 10782 10778 10776 10774 10772 10770 10769 10769 10769 10767 10765 10764 10764 10765 10766 10766 10765 10766 10766 10764 10762 10761 10761 10761 10761 10760 10760 10759 10758 10759 10759 10759 10759 10758 10759 10759 10759 10760 10760 10761 10761 10761 10761 10762 10763 10764 10764 10766 10767 10768 10768 10770 10772 10773 10774 10776 10778 10779 10781 10782 10783
10789 10794 10798 10795 10793 10793 10791 10791 10792 10791 10790 10790 10790 10791 10789 10784 10780 10779 10778 10777 10777 10778 10778 10778 10776 10773 10769 10767 10766 10764 10763 10762 10762 10761 10759 10758 10758 10760 10761 10760 10759 10760 10760 10759 10758 10756 10755 10754 10755 10756 10755 10755 10754 10754 10754 10754 10754 10754 10754 10754 10755 10756 10757 10757 10757 10758 10758 10759 10760 10760 10761 10763 10765 10766 10767 10768 10770 10771 10773 10774 10776 10777 10778 10780 10781
10782 10784 10789 10789 10786 10785 10785 10786 10785 10785 10785 10784 10784 10785 10782 10777 10774 10772 10771 10770 10769 10770 10772 10771 10770 10768 10763 10761 10760 10759 10758 10757 10756 10755 10753 10753 10753 10755 10755 10754 10753 10753 10754 10753 10753 10752 10750 10749 10749 10750 10750 10750 10750 10749 10749 10749 10749 10749 10750 10750 10751 10752 10753 10754 10754 10754 10755 10757 10757 10758 10759 10761 10762 10764 10765 10766 10768 10770 10771 10772 10773 10775 10776 10777 10779
10776 10773 10777 10781 10780 10779 10779 10779 10778 10781 10782 10781 10780 10780 10776 10771 10770 10767 10764 10764 10764 10765 10765 10765 10765 10762 10758 10755 10755 10755 10755 10753 10752 10751 10749 10748 10748 10749 10749 10749 10747 10747 10747 10747 10747 10747 10746 10744 10744 10745 10744 10744 10745 10745 10744 10744 10744 10744 10745 10746 10747 10749 10750 10750 10750 10752 10753 10754 10754 10756 10757 10759 10760 10761 10763 10764 10766 10768 10769 10770 10771 10772 10774 10775 10777
10766 10764 10765 10769 10771 10774 10774 10773 10772 10774 10776 10775 10773 10770 10767 10766 10765 10761 10759 10760 10760 10761 10759 10758 10758 10757 10754 10749 10749 10751 10751 10749 10748 10747 10745 10744 10744 10744 10744 10743 10742 10742 10741 10741 10742 10742 10742 10740 10739 10739 10739 10739 10740 10740 10740 10739 10739 10740 10740 10742 10744 10745 10746 10746 10747 10749 10750 10751 10751 10754 10755 10756 10758 10759 10761 10762 10764 10766 10768 10769 10769 10770 10771 10773 10774
10755 10754 10755 10757 10760 10764 10767 10769 10767 10769 10772 10770 10765 10760 10758 10758 10757 10755 10755 10755 10755 10756 10755 10754 10750 10750 10751 10745 10744 10745 10745 10744 10743 10743 10742 10741 10741 10741 10740 10739 10738 10737 10737 10735 10735 10736 10737 10736 10734 10734 10734 10733 10734 10735 10735 10734 10735 10735 10736 10738 10740 10741 10741 10743 10745 10746 10748 10748 10749 10752 10753 10754 10756 10757 10758 10760 10762 10764 10765 10767 10767 10768 10769 10771 10773
10746 10744 10746 10748 10750 10753 10756 10759 10761 10764 10767 10766 10763 10758 10755 10753 10752 10751 10750 10749 10750 10750 10750 10750 10746 10744 10745 10740 10736 10737 10738 10739 10739 10739 10738 10736 10737 10736 10735 10736 10734 10733 10733 10730 10729 10729 10730 10731 10730 10728 10728 10728 10729 10729 10730 10730 10730 10731 10732 10734 10735 10736 10738 10740 10742 10744 10746 10746 10746 10749 10751 10752 10754 10755 10756 10758 10759 10761 10763 10764 10765 10766 10767 10769 10771
10740 10738 10739 10741 10742 10743 10745 10747 10750 10754 10756 10756 10756 10753 10752 10750 10749 10749 10746 10744 10745 10744 10743 10743 10741 10738 10739 10737 10731 10729 10732 10734 10735 10736 10735 10732 10732 10731 10730 10731 10729 10727 10727 10725 10723 10723 10724 10724 10724 10723 10722 10723 10724 10724 10725 10726 10726 10727 10728 10730 10731 10732 10734 10737 10739 10741 10743 10744 10745 10746 10749 10750 10751 10753 10754 10755 10756 10758 10760 10761 10762 10764 10765 10767 10769
10731 10731 10732 10736 10734 10733 10736 10738 10739 10740 10741 10745 10746 10745 10744 10743 10743 10741 10738 10736 10735 10735 10734 10734 10733 10732 10734 10735 10730 10726 10727 10729 10730 10730 10730 10729 10728 10727 10726 10725 10723 10721 10719 10718 10718 10718 10718 10718 10718 10718 10718 10718 10718 10719 10720 10721 10722 10723 10724 10725 10727 10728 10731 10733 10736 10738 10740 10742 10744 10745 10746 10748 10749 10750 10751 10752 10753 10755 10756 10758 10760 10761 10763 10764 10766
10721 10722 10725 10728 10726 10725 10727 10728 10728 10727 10729 10733 10736 10738 10738 10737 10737 10736 10734 10731 10729 10729 10727 10727 10728 10727 10728 10730 10727 10725 10725 10725 10726 10726 10724 10726 10727 10726 10727 10725 10720 10716 10713 10713 10714 10714 10712 10712 10712 10713 10713 10713 10712 10714 10715 10716 10717 10719 10720 10721 10723 10725 10727 10730 10732 10735 10738 10740 10742 10743 10744 10746 10747 10748 10748 10749 10750 10752 10753 10755 10757 10758 10760 10761 10763
10713 10715 10719 10719 10717 10718 10718 10717 10718 10718 10719 10722 10725 10728 10730 10730 10731 10732 10732 10728 10727 10728 10726 10723 10722 10721 10722 10722 10720 10720 10721 10722 10723 10723 10721 10724 10725 10725 10728 10729 10721 10714 10712 10710 10710 10709 10708 10708 10708 10708 10708 10708 10708 10709 10710 10712 10713 10714 10717 10718 10719 10721 10723 10726 10729 10732 10735 10737 10739 10741 10742 10743 10744 10745 10746 10746 10747 10749 10750 10752 10754 10756 10757 10758 10759
10707 10708 10710 10710 10708 10708 10708 10708 10708 10710 10710 10712 10714 10716 10718 10720 10721 10722 10723 10722 10721 10722 10723 10720 10716 10716 10717 10715 10713 10715 10718 10717 10717 10718 10719 10720 10721 10722 10724 10725 10719 10711 10709 10708 10706 10704 10703 10703 10704 10704 10704 10704 10705 10705 10706 10708 10709 10710 10713 10715 10715 10717 10719 10722 10726 10729 10731 10733 10735 10737 10739 10740 10742 10743 10743 10744 10745 10746 10748 10749 10751 10753 10754 10755 10757
10700 10699 10699 10699 10698 10698 10698 10699 10700 10701 10701 10703 10704 10706 10707 10708 10709 10709 10710 10711 10711 10712 10713 10712 10711 10711 10710 10708 10707 10711 10713 10709 10709 10712 10713 10713 10714 10716 10717 10717 10714 10708 10705 10704 10703 10701 10699 10699 10700 10700 10700 10700 10701 10702 10703 10704 10705 10707 10710 10711 10712 10713 10716 10718 10721 10724 10727 10730 10732 10734 10736 10737 10739 10740 10741 10741 10742 10743 10745 10746 10747 10749 10751 10752 10754
10689 10689 10690 10690 10689 10689 10690 10691 10691 10691 10692 10693 10695 10696 10697 10698 10698 10698 10699 10699 10700 10701 10702 10702 10702 10703 10701 10700 10701 10704 10704 10700 10701 10703 10704 10705 10706 10706 10707 10708 10707 10705 10702 10698 10697 10696 10696 10696 10696 10696 10697 10697 10698 10699 10700 10701 10702 10703 10705 10707 10708 10710 10712 10715 10717 10720 10723 10726 10729 10731 10732 10734 10735 10736 10738 10738 10739 10740 10741 10743 10744 10745 10747 10748 10750
10680 10679 10681 10682 10680 10681 10681 10682 10682 10682 10682 10683 10685 10686 10686 10687 10687 10687 10688 10688 10689 10691 10691 10691 10692 10692 10692 10693 10695 10694 10693 10692 10692 10694 10695 10697 10697 10696 10698 10700 10700 10701 10698 10692 10690 10691 10691 10691 10691 10692 10694 10694 10695 10696 10697 10698 10699 10700 10702 10703 10705 10707 10709 10711 10714 10716 10719 10723 10725 10728 10729 10730 10732 10733 10734 10735 10736 10737 10738 10739 10741 10742 10743 10745 10746
10670 10671 10672 10672 10671 10671 10672 10673 10674 10673 10672 10673 10674 10675 10675 10676 10676 10676 10677 10677 10679 10680 10680 10680 10681 10683 10683 10684 10686 10685 10684 10684 10685 10686 10687 10689 10689 10687 10690 10693 10693 10693 10691 10687 10686 10686 10686 10687 10687 10689 10690 10691 10692 10692 10693 10695 10696 10696 10698 10700 10702 10704 10706 10708 10710 10713 10716 10719 10722 10724 10726 10728 10729 10730 10731 10732 10733 10734 10735 10736 10737 10738 10740 10741 10743
10660 10663 10662 10662 10662 10662 10663 10664 10664 10664 10663 10664 10664 10664 10664 10665 10665 10666 10666 10667 10669 10669 10669 10669 10671 10673 10673 10673 10675 10675 10675 10677 10678 10678 10678 10681 10682 10681 10685 10687 10686 10686 10685 10683 10682 10681 10682 10683 10684 10685 10687 10688 10689 10689 10690 10691 10692 10693 10694 10696 10698 10700 10702 10705 10707 10709 10712 10716 10719 10721 10723 10726 10727 10728 10728 10729 10730 10731 10732 10733 10734 10735 10736 10738 10740
10651 10654 10655 10655 10654 10654 10655 10654 10655 10655 10655 10654 10654 10654 10654 10655 10655 10656 10656 10657 10658 10659 10659 10659 10661 10663 10663 10664 10665 10666 10667 10668 10669 10670 10672 10675 10675 10676 10681 10680 10679 10681 10679 10676 10676 10677 10679 10680 10681 10682 10683 10685 10686 10686 10687 10686 10688 10690 10691 10692 10695 10697 10698 10701 10704 10706 10709 10712 10715 10718 10720 10723 10725 10725 10726 10726 10727 10728 10729 10729 10730 10732 10733 10734 10736
10644 10646 10648 10647 10647 10647 10646 10646 10646 10646 10646 10646 10645 10645 10645 10645 10646 10646 10647 10648 10649 10649 10649 10650 10652 10654 10655 10656 10657 10658 10659 10658 10659 10663 10668 10670 10669 10671 10674 10674 10673 10674 10673 10671 10670 10672 10675 10677 10678 10678 10679 10681 10682 10683 10683 10683 10684 10687 10688 10689 10692 10694 10695 10698 10701 10703 10706 10709 10712 10714 10717 10719 10721 10723 10724 10724 10725 10725 10726 10727 10728 10729 10730 10731 10733
10638 10640 10640 10640 10640 10640 10638 10637 10637 10638 10638 10638 10638 10637 10637 10637 10637 10637 10638 10639 10640 10640 10640 10642 10644 10645 10646 10648 10649 10650 10650 10650 10652 10655 10660 10662 10663 10665 10667 10668 10668 10668 10669 10669 10668 10668 10672 10674 10674 10675 10676 10677 10677 10678 10680 10681 10682 10684 10686 10687 10688 10690 10693 10695 10697 10700 10703 10706 10708 10711 10712 10715 10717 10719 10721 10722 10722 10723 10724 10725 10725 10726 10727 10729 10730
10633 10634 10634 10635 10635 10633 10632 10631 10630 10630 10631 10631 10630 10630 10630 10630 10629 10629 10630 10631 10632 10633 10633 10635 10637 10637 10638 10640 10641 10643 10643 10644 10646 10649 10651 10653 10656 10659 10659 10661 10663 10664 10665 10666 10666 10667 10669 10670 10670 10671 10673 10673 10674 10675 10678 10679 10680 10682 10683 10684 10685 10687 10689 10692 10694 10697 10699 10702 10704 10707 10709 10711 10713 10715 10717 10718 10719 10721 10722 10723 10723 10723 10725 10726 10727
10629 10629 10629 10630 10630 10628 10625 10624 10623 10623 10624 10624 10623 10623 10623 10623 10623 10623 10623 10624 10625 10626 10627 10628 10630 10631 10631 10632 10635 10637 10638 10639 10641 10643 10645 10646 10650 10652 10651 10654 10658 10660 10661 10662 10663 10665 10667 10667 10666 10667 10669 10670 10672 10673 10674 10676 10678 10679 10681 10682 10682 10683 10686 10688 10691 10694 10696 10698 10700 10703 10705 10707 10709 10712 10714 10715 10717 10718 10720 10721 10721 10721 10722 10723 10724
10624 10624 10625 10625 10625 10625 10621 10619 10618 10618 10617 10617 10617 10617 10618 10618 10618 10617 10617 10618 10619 10620 10622 10623 10625 10625 10626 10626 10629 10631 10633 10634 10636 10637 10639 10641 10644 10646 10645 10647 10652 10655 10657 10658 10659 10662 10665 10664 10663 10664 10665 10667 10669 10669 10671 10672 10674 10676 10677 10678 10679 10680 10682 10685 10687 10689 10691 10694 10696 10698 10701 10703 10705 10708 10710 10711 10713 10715 10717 10718 10719 10719 10719 10720 10721
10620 10620 10620 10620 10620 10621 10618 10615 10614 10613 10613 10612 10612 10612 10612 10613 10613 10613 10613 10613 10614 10615 10617 10619 10620 10621 10621 10622 10624 10626 10628 10629 10631 10632 10634 10636 10638 10640 10640 10642 10646 10649 10651 10651 10653 10657 10659 10658 10659 10661 10662 10664 10665 10665 10666 10667 10670 10672 10673 10674 10676 10677 10679 10681 10682 10684 10687 10689 10691 10694 10696 10698 10701 10703 10705 10707 10710 10712 10714 10716 10717 10717 10717 10717 10719
10617 10617 10616 10615 10614 10614 10612 10610 10609 10609 10609 10608 10608 10608 10608 10608 10608 10609 10609 10610 10610 10612 10613 10614 10616 10617 10617 10618 10620 10621 10623 10625 10626 10628 10630 10631 10634 10636 10637 10639 10641 10643 10646 10646 10647 10650 10651 10652 10654 10656 10659 10660 10659 10659 10661 10663 10666 10667 10668 10670 10671 10673 10674 10675 10678 10681 10683 10685 10688 10690 10692 10694 10696 10699 10702 10704 10706 10708 10710 10712 10714 10715 10715 10715 10716
10613 10613 10613 10610 10608 10608 10606 10605 10605 10605 10605 10605 10605 10604 10604 10604 10604 10605 10606 10606 10607 10608 10610 10611 10612 10613 10614 10615 10616 10617 10619 10620 10622 10623 10625 10627 10629 10631 10633 10635 10636 10638 10640 10642 10643 10644 10645 10645 10648 10651 10653 10653 10653 10655 10657 10660 10662 10663 10664 10665 10666 10668 10670 10671 10674 10676 10678 10681 10684 10686 10688 10690 10693 10696 10698 10700 10702 10704 10707 10709 10710 10711 10712 10712 10713
10609 10610 10609 10606 10604 10603 10602 10601 10600 10601 10602 10602 10602 10601 10601 10601 10601 10602 10603 10603 10604 10605 10606 10607 10608 10609 10610 10612 10613 10614 10615 10616 10618 10619 10621 10623 10625 10627 10629 10630 10632 10633 10635 10636 10637 10638 10639 10639 10642 10645 10647 10647 10648 10651 10654 10657 10659 10660 10661 10662 10662 10664 10666 10667 10670 10672 10674 10677 10680 10682 10684 10686 10689 10693 10695 10697 10699 10701 10702 10703 10705 10706 10708 10708 10709
10604 10605 10605 10604 10601 10600 10598 10598 10597 10598 10599 10599 10599 10598 10598 10598 10598 10599 10600 10600 10601 10602 10603 10604 10605 10606 10607 10608 10610 10611 10612 10613 10614 10616 10617 10619 10620 10623 10624 10626 10628 10629 10630 10631 10632 10633 10634 10635 10637 10640 10642 10643 10645 10647 10650 10653 10655 10656 10658 10659 10659 10661 10662 10663 10665 10667 10670 10673 10675 10677 10680 10682 10685 10688 10690 10692 10695 10697 10698 10699 10701 10702 10703 10704 10705
10599 10600 10600 10600 10598 10596 10595 10594 10594 10595 10597 10596 10596 10596 10595 10596 10596 10596 10597 10597 10598 10599 10600 10601 10602 10603 10604 10605 10606 10608 10609 10610 10611 10612 10614 10615 10617 10618 10620 10622 10623 10625 10626 10627 10628 10629 10630 10632 10633 10636 10638 10639 10641 10644 10647 10650 10651 10653 10654 10655 10656 10658 10658 10659 10661 10663 10666 10668 10671 10674 10676 10678 10681 10683 10685 10688 10690 10693 10695 10696 10698 10699 10700 10700 10702
10594 10595 10595 10596 10595 10594 10592 10591 10591 10592 10594 10594 10593 10593 10593 10593 10593 10593 10594 10594 10595 10596 10597 10598 10599 10600 10602 10603 10604 10605 10605 10606 10608 10609 10610 10611 10613 10615 10616 10618 10619 10621 10622 10623 10625 10626 10627 10629 10630 10632 10634 10636 10638 10641 10644 10646 10648 10649 10650 10652 10654 10655 10656 10657 10658 10660 10662 10665 10668 10670 10672 10674 10677 10679 10681 10684 10686 10688 10690 10692 10694 10696 10696 10696 10699
10589 10589 10590 10591 10592 10591 10590 10589 10588 10589 10591 10591 10590 10589 10590 10590 10590 10591 10591 10591 10592 10593 10594 10595 10597 10598 10599 10600 10601 10602 10602 10603 10604 10605 10606 10608 10609 10611 10612 10614 10615 10617 10618 10619 10621 10622 10624 10626 10628 10629 10631 10633 10635 10638 10641 10643 10644 10645 10647 10649 10650 10652 10654 10655 10656 10658 10659 10662 10664 10667 10669 10671 10673 10675 10677 10680 10681 10683 10685 10687 10689 10690 10690 10692 10695
10583 10583 10585 10586 10587 10587 10586 10585 10584 10585 10586 10587 10587 10586 10586 10587 10587 10588 10588 10588 10589 10590 10591 10592 10594 10595 10596 10597 10597 10598 10599 10600 10601 10602 10603 10604 10605 10607 10608 10610 10611 10613 10614 10616 10617 10619 10621 10622 10625 10626 10628 10630 10632 10635 10637 10639 10641 10642 10643 10645 10647 10649 10650 10652 10654 10655 10657 10659 10661 10663 10665 10667 10670 10671 10673 10675 10677 10678 10680 10681 10683 10685 10687 10689 10691
10576 10577 10579 10580 10582 10582 10581 10580 10579 10580 10582 10583 10583 10582 10582 10584 10584 10585 10585 10585 10586 10587 10588 10589 10590 10591 10592 10593 10593 10594 10595 10596 10597 10598 10599 10600 10601 10603 10604 10606 10607 10608 10610 10612 10614 10615 10617 10619 10621 10623 10625 10627 10629 10631 10633 10635 10637 10638 10639 10641 10643 10645 10647 10648 10650 10652 10653 10655 10658 10659 10661 10663 10665 10667 10669 10670 10672 10673 10675 10677 10679 10681 10683 10685 10687
10570 10572 10572 10573 10575 10576 10576 10575 10574 10575 10576 10578 10578 10578 10578 10579 10580 10581 10581 10582 10583 10583 10584 10585 10586 10587 10588 10589 10589 10590 10591 10592 10592 10593 10595 10596 10597 10598 10600 10601 10602 10604 10606 10608 10609 10611 10613 10615 10617 10619 10621 10623 10625 10627 10628 10629 10631 10634 10635 10636 10638 10641 10642 10644 10646 10648 10650 10651 10653 10655 10657 10658 10660 10663 10665 10666 10667 10668 10670 10673 10675 10676 10678 10680 10683